Temperature
18 18 18 17 17 17 17 17 17 17 17 17 17 17 17 17 17 17 17 17 17 16 16 16 16 16 16 16 16 16 16 16 16 16 16 15 15 15 15 15 15 14 14
17 17 17 17 17 17 17 17 17 17 17 17 17 17 17 17 17 17 17 17 17 16 16 16 16 16 16 16 16 16 16 16 15 15 15 15 15 15 15 14 14 14 14
17 17 17 17 17 17 17 17 17 16 16 16 17 17 17 16 16 17 17 17 17 16 16 16 16 16 16 16 16 16 15 15 15 15 15 15 15 15 14 14 14 14 14
17 17 17 17 17 16 16 16 16 16 16 16 16 16 16 16 16 16 16 16 16 16 16 16 16 16 16 16 15 15 15 15 15 15 15 14 14 14 14 14 13 13 13
16 16 17 17 16 16 16 16 16 16 16 16 16 16 16 16 16 16 16 16 16 16 16 16 16 16 16 15 15 15 15 15 15 14 14 14 14 14 14 13 13 13 12
16 16 16 16 16 16 16 16 16 16 16 16 15 15 16 16 16 16 16 16 16 16 16 16 15 15 15 15 15 15 15 15 14 14 14 14 14 13 13 13 12 12 12
16 16 16 16 15 15 16 15 15 15 15 15 15 15 15 15 15 15 15 15 15 15 15 15 15 15 15 15 15 14 14 14 14 14 14 13 13 13 13 12 12 12 11
15 15 15 15 15 15 15 15 15 15 15 15 15 14 14 15 15 15 15 15 15 15 15 15 15 14 14 14 14 14 14 13 13 13 13 13 13 12 12 12 11 11 11
14 15 15 15 15 15 15 15 15 14 14 14 14 14 14 14 14 14 14 14 14 14 14 14 14 14 14 14 14 13 13 13 13 12 12 12 12 11 11 11 11 10 10
14 14 14 14 14 14 14 14 14 14 14 14 14 14 14 14 14 14 14 14 14 14 13 13 13 13 13 13 13 13 13 12 12 12 12 11 11 11 11 10 10 10 10
13 13 13 14 14 14 14 14 14 14 14 14 14 14 13 13 13 13 13 13 13 13 13 13 13 13 13 13 13 12 12 12 12 11 11 11 10 10 10 10 10 9 9
13 13 13 13 13 13 13 13 13 13 13 13 13 13 13 13 13 13 13 13 13 13 12 12 12 12 12 12 12 12 12 11 11 11 10 10 10 9 9 9 9 9 8
12 12 12 12 12 13 13 13 13 13 13 13 13 13 13 13 13 13 13 13 12 12 12 12 12 12 12 11 11 11 11 11 10 10 9 9 9 9 8 8 8 8 8
11 11 11 11 12 12 12 12 12 12 12 12 12 12 12 12 12 12 12 12 12 11 11 11 11 11 11 11 11 10 10 10 9 9 9 8 8 8 8 8 8 8 8
10 10 11 11 11 11 11 11 12 12 12 12 12 12 12 12 12 12 12 12 12 11 10 10 10 10 10 10 10 10 9 9 9 8 8 8 8 8 8 8 8 7 7
9 10 10 10 10 11 11 11 11 11 11 11 11 11 11 11 11 11 11 12 12 12 11 10 10 10 9 9 9 9 9 9 8 8 8 8 7 7 7 7 7 7 7
9 9 9 9 10 10 10 10 10 10 10 11 11 11 11 11 11 11 11 11 11 11 11 10 9 9 9 8 8 8 8 8 8 7 7 7 7 7 7 7 7 7 7
8 9 9 9 9 9 9 9 9 10 10 10 10 10 11 11 11 11 11 10 10 10 10 10 8 8 8 8 8 8 7 7 7 7 7 7 7 7 7 7 7 6 6
8 8 8 8 8 8 9 9 9 9 9 9 9 10 10 10 10 10 10 10 10 10 10 9 8 8 7 7 7 7 7 7 7 7 7 7 7 7 7 6 6 6 6
7 7 8 8 8 8 8 8 8 8 9 9 9 9 9 9 9 10 10 10 9 9 9 8 8 7 7 7 7 7 7 7 7 7 7 7 6 6 6 6 6 6 6
7 7 7 7 7 7 7 8 8 8 8 8 9 9 9 9 9 9 9 9 9 9 8 8 7 7 7 7 7 7 7 7 7 7 7 6 7 7 6 6 6 6 6
7 7 7 7 7 7 7 7 8 8 8 8 8 8 8 8 9 9 9 9 9 9 8 8 8 7 7 7 7 7 7 7 7 7 7 7 7 7 7 7 7 7 7
6 6 7 7 7 7 7 7 7 7 8 8 8 8 8 8 8 8 8 8 8 8 8 8 8 8 7 7 7 7 7 7 7 7 7 7 7 7 7 7 7 7 7
6 6 6 6 6 7 7 7 7 7 7 7 7 7 8 8 8 8 8 8 8 8 8 8 8 8 8 7 7 7 7 7 7 7 7 7 7 7 7 7 7 7 7
6 6 6 6 6 6 6 6 7 7 7 7 7 7 7 7 7 8 8 7 7 7 7 7 7 7 7 7 7 7 7 7 7 7 7 7 7 7 7 7 7 7 7
6 6 6 6 6 6 6 6 7 7 7 7 7 7 7 7 7 7 7 7 7 7 7 7 7 7 7 7 7 7 7 7 7 7 7 7 7 7 7 7 7 7 7
Wind_Speed
3 3 3 4 5 6 5 4 4 4 4 4 4 4 5 5 6 5 6 8 11 14 15 16 16 16 16 15 14 12 11 11 10 9 9 8 8 7 7 7 6 6 6
4 4 3 4 4 5 5 5 5 4 3 3 3 3 4 4 5 5 5 6 9 12 15 15 16 16 16 15 14 13 12 11 10 10 9 8 8 8 7 7 7 8 7
5 4 3 3 4 5 5 4 3 2 2 2 3 2 2 3 4 4 4 5 6 9 12 14 14 16 15 15 14 13 12 11 10 9 9 9 9 8 8 8 8 9 9
4 4 3 3 5 4 4 3 3 2 3 2 2 1 1 2 3 3 3 4 5 6 9 11 13 14 14 14 13 12 12 11 10 10 9 9 9 9 9 10 10 10 11
3 3 2 3 4 3 2 3 3 3 3 3 2 2 1 1 2 3 3 4 4 6 7 9 11 12 12 12 12 12 12 12 11 11 10 10 10 10 10 10 11 11 11
1 1 1 2 2 2 2 2 3 2 2 2 1 1 1 1 1 2 3 3 3 4 5 6 7 9 11 12 12 12 12 12 12 11 11 11 11 11 11 11 11 12 12
4 2 1 1 0 1 2 3 2 2 2 2 1 0 1 0 1 2 2 1 2 2 3 4 5 7 8 11 12 12 12 12 11 12 12 12 12 12 12 12 12 12 12
6 4 2 1 1 1 1 2 2 2 2 3 2 1 1 1 1 1 1 2 2 2 2 3 5 6 8 8 10 11 11 11 12 12 12 12 12 12 12 13 13 13 13
6 5 4 2 2 1 1 2 2 3 3 3 3 3 3 3 1 0 1 1 1 1 1 2 2 4 6 8 9 10 11 12 13 13 12 13 13 13 13 13 13 13 13
7 6 5 3 2 1 1 2 2 2 3 4 3 3 2 2 2 1 1 1 1 1 1 1 2 3 5 7 8 10 12 13 14 14 13 14 14 14 14 14 14 14 13
8 8 7 5 3 2 2 2 2 2 3 4 3 2 2 2 2 3 3 2 1 1 1 2 2 3 4 7 9 11 12 13 13 14 14 15 15 15 15 15 14 13 13
5 8 8 6 4 3 2 2 2 2 3 3 3 3 3 3 3 3 3 3 3 1 1 2 2 3 4 6 9 12 12 13 14 14 15 15 15 15 15 14 14 14 13
5 6 6 5 4 4 4 3 2 2 2 3 3 3 4 4 3 3 4 3 2 1 2 2 2 4 6 8 9 13 13 14 14 15 16 15 14 14 14 13 14 13 12
4 5 6 6 6 5 5 4 2 2 2 2 3 3 3 3 3 3 4 5 3 1 1 1 2 4 7 9 11 13 13 15 15 15 16 15 14 14 14 14 14 13 12
4 6 6 6 6 6 5 4 3 3 3 2 2 2 2 2 2 3 3 4 5 4 2 2 2 3 8 10 11 12 13 14 15 16 15 14 13 13 14 14 13 12 11
6 6 6 6 6 6 6 5 4 4 3 3 2 2 2 2 1 2 2 2 3 4 3 2 2 4 8 10 12 12 13 14 13 14 13 13 13 13 13 12 12 11 10
6 7 6 6 6 7 6 6 5 5 5 4 3 2 1 1 1 1 2 2 3 4 5 4 4 6 6 7 10 11 11 11 11 13 13 12 11 11 11 10 10 8 7
6 6 6 7 7 7 7 6 7 7 6 6 5 4 3 2 1 1 2 3 4 4 7 9 6 5 6 7 8 9 9 9 9 10 10 10 10 9 8 8 7 6 5
6 7 7 7 7 7 7 6 6 7 7 6 6 5 4 3 3 2 3 4 5 7 8 10 8 5 5 6 7 7 7 6 6 7 7 7 7 7 6 6 5 5 4
6 7 6 6 6 7 7 7 7 7 7 7 6 5 4 4 3 3 4 5 7 9 10 10 10 7 6 5 6 6 5 3 3 4 4 4 4 4 4 4 5 5 5
7 6 6 7 7 6 7 7 6 7 7 7 8 7 6 6 6 4 5 6 9 9 9 9 9 8 6 6 5 4 5 4 2 2 2 2 2 2 3 5 7 7 8
7 7 7 7 8 7 9 10 8 7 7 8 8 7 7 8 9 10 10 8 9 10 10 8 8 9 7 6 5 6 5 4 2 1 2 1 1 2 4 5 7 9 10
7 7 7 7 7 8 11 11 11 8 8 8 8 7 7 7 8 8 11 12 11 9 8 9 10 8 8 7 7 6 4 3 2 2 2 1 0 1 3 5 6 8 10
6 5 7 7 7 9 11 11 11 9 9 9 8 8 7 8 7 8 10 11 10 9 8 7 7 7 6 7 6 6 6 5 3 2 1 1 0 1 3 5 6 7 8
6 5 5 7 7 8 11 10 9 7 8 9 9 9 8 8 9 10 11 12 11 9 12 14 12 10 10 9 9 7 6 5 3 1 1 1 0 1 2 3 5 5 7
5 5 7 7 7 7 10 11 8 6 7 7 8 9 12 10 10 11 10 10 11 8 8 9 10 10 9 8 7 5 5 4 3 1 1 1 0 0 1 2 3 5 5
Wind_Direction
199 208 218 221 221 215 207 204 207 209 218 230 228 222 223 227 229 226 228 230 226 220 214 210 207 206 205 202 198 193 191 192 190 188 184 182 180 180 176 173 169 162 155
206 208 216 222 224 220 215 214 212 208 218 223 232 225 226 224 225 224 231 237 236 227 217 212 210 209 206 201 197 196 195 194 191 186 180 175 173 169 165 161 154 147 140
207 207 212 222 227 222 216 221 223 209 224 222 228 225 223 231 230 227 233 236 238 230 217 210 209 208 206 203 199 198 195 192 187 182 176 169 163 156 150 145 141 137 131
217 212 217 228 231 216 205 209 208 209 218 210 214 231 232 242 250 239 237 236 232 227 215 210 208 207 207 206 201 198 193 187 183 177 169 162 155 148 142 138 135 130 125
228 215 229 239 228 212 212 221 203 196 205 208 214 228 245 255 262 257 245 234 226 218 206 206 207 207 205 206 202 196 191 185 180 174 166 158 152 147 141 136 132 128 122
310 217 235 260 229 209 219 214 208 194 188 184 207 255 264 271 273 267 257 239 217 205 193 193 198 203 201 199 195 191 190 182 173 165 157 151 145 143 140 135 131 128 124
19 22 3 358 317 236 237 216 201 190 177 148 140 276 305 276 277 281 280 246 207 193 179 178 184 192 192 191 190 189 182 174 164 157 150 146 142 140 137 133 130 128 125
18 13 19 9 357 274 250 224 195 185 188 176 166 166 253 281 260 250 250 245 231 181 174 178 183 182 181 178 181 180 177 169 162 155 149 146 144 144 139 135 132 127 125
18 14 18 19 3 308 260 244 220 205 210 207 195 177 190 219 219 233 217 225 237 200 171 155 179 181 175 173 178 175 169 163 161 154 150 147 144 142 139 137 133 130 128
16 14 16 14 7 345 306 282 250 231 217 222 221 218 207 174 180 198 213 203 187 183 154 122 126 152 163 161 165 162 161 158 157 151 145 141 139 136 134 134 132 129 126
18 15 16 12 3 348 331 315 295 256 236 231 223 209 204 208 203 193 204 181 143 76 81 95 104 114 140 151 150 150 151 148 146 145 142 139 136 131 129 126 125 125 123
8 11 11 11 4 350 335 322 307 278 257 251 241 223 206 199 198 192 194 181 163 117 73 76 94 100 110 127 137 138 135 132 133 137 138 135 133 129 128 126 124 120 119
355 355 1 2 359 355 352 345 331 311 276 259 254 247 233 226 198 183 175 166 151 109 70 55 62 92 101 104 118 124 122 123 124 126 127 128 129 127 126 124 121 117 114
342 345 358 6 5 5 3 1 347 325 317 290 277 269 254 239 217 193 174 159 155 137 99 100 58 87 103 104 108 114 116 121 122 123 122 123 123 124 124 122 118 115 112
352 0 7 9 11 13 10 6 3 344 338 326 306 288 267 257 233 208 185 180 172 174 178 148 120 91 104 106 109 112 112 116 121 122 122 123 124 124 122 120 119 117 115
6 8 11 12 14 14 15 17 10 358 359 345 331 320 283 268 239 202 189 184 171 163 160 133 129 121 112 111 109 110 111 116 122 126 126 126 128 126 126 125 125 124 124
11 12 10 14 16 16 15 17 16 13 10 3 356 353 338 308 218 176 156 149 143 141 142 121 107 112 107 108 107 106 106 108 113 119 125 128 130 130 129 129 129 130 132
12 13 14 21 21 20 19 23 23 21 21 13 6 17 20 43 63 105 130 134 137 135 138 132 121 113 107 113 111 107 105 107 111 119 127 130 132 133 136 134 135 138 145
15 19 24 24 23 23 24 25 27 27 28 23 18 23 26 49 65 92 113 123 125 123 123 128 127 118 109 114 111 106 102 100 111 123 129 134 140 145 144 145 151 163 177
22 23 26 25 25 28 28 29 32 32 33 31 27 29 36 55 75 97 112 121 122 121 124 126 127 123 117 115 118 119 111 98 106 118 123 135 144 157 172 187 199 209 216
26 25 31 31 28 31 29 30 36 39 38 39 36 37 49 67 74 85 113 124 127 127 127 129 129 128 129 134 132 131 126 114 96 113 123 138 150 182 213 226 232 236 240
26 32 33 34 34 33 34 37 43 44 42 43 40 40 50 59 71 78 90 106 128 136 137 136 136 138 141 140 135 136 132 130 126 126 134 126 160 223 238 241 245 247 251
32 34 30 34 36 28 36 42 46 52 48 41 38 40 53 56 67 85 83 83 87 102 125 137 139 143 147 153 144 137 138 132 126 134 137 127 208 251 262 261 263 259 258
34 32 29 30 37 29 35 46 51 54 51 43 39 41 54 55 68 88 91 85 79 78 93 111 127 136 143 148 144 137 131 115 95 93 155 143 276 274 291 290 273 263 261
39 36 31 32 38 27 33 45 54 58 53 42 37 39 51 62 67 87 95 93 86 77 79 93 101 109 121 133 135 124 124 121 112 110 177 184 235 292 288 285 290 283 274
47 47 43 34 35 30 30 41 49 63 57 46 39 38 45 59 68 80 93 99 96 91 96 92 88 88 97 111 127 139 143 135 131 142 182 181 172 307 302 287 293 301 296
Height
1562 1564 1565 1566 1566 1567 1568 1569 1570 1571 1571 1572 1573 1574 1574 1575 1576 1577 1578 1579 1580 1581 1581 1582 1582 1583 1584 1584 1585 1586 1587 1587 1588 1588 1589 1589 1590 1590 1591 1591 1591 1592 1592
1561 1562 1563 1564 1564 1565 1566 1567 1568 1569 1569 1570 1571 1572 1572 1573 1574 1575 1576 1577 1578 1579 1580 1580 1581 1581 1582 1583 1583 1584 1585 1586 1586 1587 1587 1587 1588 1589 1589 1589 1589 1590 1590
1559 1560 1560 1561 1562 1563 1564 1564 1565 1566 1567 1568 1568 1569 1570 1571 1571 1572 1574 1575 1576 1576 1577 1578 1579 1579 1580 1581 1581 1582 1583 1584 1584 1585 1585 1585 1586 1586 1587 1587 1587 1588 1588
1556 1557 1558 1559 1560 1560 1561 1562 1562 1563 1564 1565 1565 1566 1567 1568 1568 1569 1570 1571 1573 1574 1574 1575 1576 1576 1577 1578 1579 1580 1581 1581 1582 1582 1583 1583 1584 1584 1585 1585 1585 1586 1586
1553 1554 1555 1555 1556 1557 1558 1558 1559 1560 1560 1561 1562 1562 1563 1564 1565 1566 1566 1568 1569 1570 1571 1572 1573 1574 1574 1575 1576 1577 1578 1579 1579 1580 1581 1581 1582 1582 1583 1583 1584 1584 1584
1551 1551 1552 1552 1553 1554 1554 1555 1555 1556 1557 1558 1558 1559 1559 1560 1561 1562 1563 1564 1565 1566 1567 1568 1569 1570 1571 1572 1573 1574 1575 1576 1577 1577 1578 1578 1579 1580 1580 1581 1582 1582 1583
1548 1548 1549 1549 1550 1551 1552 1552 1552 1553 1553 1554 1555 1555 1556 1556 1557 1558 1559 1559 1560 1561 1563 1564 1565 1567 1568 1569 1570 1571 1572 1573 1574 1574 1575 1576 1577 1577 1578 1579 1580 1580 1581
1545 1545 1546 1546 1546 1547 1548 1549 1549 1549 1549 1550 1551 1552 1552 1553 1553 1554 1555 1556 1557 1558 1558 1560 1561 1562 1564 1565 1566 1567 1568 1570 1571 1572 1572 1573 1574 1575 1576 1577 1578 1579 1580
1542 1542 1542 1543 1543 1544 1544 1545 1545 1545 1546 1547 1548 1549 1549 1549 1550 1551 1551 1552 1553 1554 1555 1556 1557 1558 1559 1561 1562 1564 1565 1567 1568 1569 1570 1571 1572 1573 1574 1575 1576 1577 1578
1540 1540 1540 1540 1540 1541 1541 1541 1541 1541 1542 1542 1543 1544 1546 1546 1547 1547 1548 1549 1550 1551 1551 1552 1553 1554 1556 1557 1559 1561 1562 1564 1565 1566 1567 1568 1569 1571 1572 1573 1575 1576 1577
1538 1538 1537 1537 1537 1537 1537 1537 1537 1537 1537 1538 1538 1539 1540 1542 1543 1544 1544 1545 1546 1547 1548 1549 1550 1551 1552 1554 1555 1557 1559 1560 1562 1563 1565 1566 1568 1569 1571 1572 1574 1575 1576
1536 1535 1535 1535 1534 1534 1533 1533 1533 1533 1533 1534 1534 1534 1535 1536 1538 1539 1540 1540 1542 1544 1545 1546 1547 1548 1549 1550 1551 1553 1555 1557 1559 1561 1563 1565 1567 1568 1570 1571 1573 1574 1575
1534 1534 1533 1532 1532 1531 1530 1529 1529 1529 1529 1529 1529 1529 1530 1531 1533 1535 1536 1537 1538 1540 1542 1543 1545 1546 1547 1548 1549 1550 1552 1554 1556 1559 1561 1563 1565 1567 1569 1571 1572 1573 1575
1533 1532 1531 1530 1529 1528 1527 1526 1526 1525 1525 1525 1524 1524 1524 1525 1527 1529 1531 1533 1534 1537 1539 1541 1542 1544 1545 1546 1547 1549 1551 1553 1555 1557 1560 1562 1565 1566 1568 1570 1572 1573 1575
1532 1531 1530 1529 1528 1527 1526 1524 1523 1522 1522 1521 1520 1520 1520 1521 1522 1524 1526 1529 1531 1532 1535 1538 1540 1542 1543 1545 1546 1548 1550 1552 1555 1557 1559 1562 1564 1566 1568 1570 1571 1573 1574
1532 1531 1529 1528 1527 1525 1524 1523 1521 1520 1519 1518 1517 1517 1517 1517 1518 1520 1522 1524 1527 1529 1531 1534 1537 1540 1542 1543 1545 1548 1550 1552 1554 1557 1560 1562 1564 1566 1568 1570 1572 1573 1574
1532 1531 1529 1527 1526 1525 1523 1522 1521 1519 1518 1516 1515 1515 1515 1515 1516 1517 1519 1521 1523 1525 1527 1531 1535 1538 1541 1543 1545 1548 1550 1553 1555 1557 1560 1562 1565 1567 1568 1570 1572 1573 1574
1533 1531 1529 1528 1526 1525 1524 1522 1521 1519 1517 1516 1514 1513 1513 1514 1514 1515 1516 1517 1520 1522 1525 1528 1533 1537 1540 1543 1546 1548 1551 1553 1556 1558 1561 1563 1566 1568 1569 1570 1572 1573 1574
1534 1532 1530 1529 1527 1526 1525 1523 1521 1520 1518 1516 1514 1513 1513 1513 1512 1513 1514 1516 1518 1521 1524 1527 1532 1536 1540 1544 1547 1549 1552 1554 1557 1559 1562 1565 1567 1568 1570 1571 1572 1573 1573
1535 1534 1532 1531 1529 1528 1526 1524 1523 1521 1519 1518 1516 1515 1513 1513 1513 1513 1514 1516 1518 1521 1524 1528 1532 1536 1540 1545 1548 1550 1553 1556 1559 1561 1563 1566 1567 1569 1571 1572 1573 1573 1574
1537 1536 1534 1533 1532 1530 1529 1527 1525 1524 1522 1520 1518 1517 1515 1515 1515 1515 1516 1517 1519 1522 1525 1529 1533 1537 1542 1545 1549 1552 1554 1557 1560 1563 1565 1567 1568 1570 1571 1572 1573 1573 1574
1539 1538 1537 1536 1534 1533 1532 1530 1529 1527 1525 1523 1521 1520 1519 1518 1517 1517 1518 1520 1522 1524 1527 1531 1534 1538 1543 1546 1550 1553 1556 1558 1561 1565 1566 1568 1569 1571 1572 1572 1573 1573 1573
1542 1540 1539 1538 1537 1536 1535 1534 1532 1530 1528 1527 1525 1524 1522 1522 1521 1521 1522 1523 1526 1529 1532 1534 1537 1541 1544 1547 1550 1554 1557 1560 1562 1565 1567 1568 1570 1571 1572 1572 1572 1572 1573
1544 1543 1542 1541 1540 1539 1538 1537 1535 1534 1532 1530 1529 1528 1527 1526 1526 1526 1527 1528 1530 1532 1535 1538 1541 1544 1547 1550 1553 1556 1558 1561 1564 1566 1568 1569 1570 1571 1571 1572 1572 1572 1571
1547 1546 1545 1544 1543 1542 1542 1541 1539 1538 1536 1535 1534 1533 1532 1531 1531 1531 1531 1532 1534 1536 1539 1542 1545 1547 1550 1552 1555 1557 1560 1562 1564 1567 1568 1569 1570 1570 1571 1571 1571 1571 1570
1549 1548 1548 1547 1547 1546 1545 1544 1543 1542 1540 1539 1538 1538 1537 1536 1536 1536 1537 1537 1538 1541 1543 1546 1548 1551 1553 1555 1558 1560 1562 1564 1565 1567 1569 1569 1570 1570 1570 1570 1570 1569 1569